Flag for Martinique Weather past 2 weeks in Fort-de-France, Martinique

Now
86 °F

Partly sunny.


Feels Like: 95 °F
Forecast: 75 / 87 °F
Wind: 13 mph from Northeast

Location: Le Lamentin Airport

Current Time: Oct 20, 2014 at 1:59:43 PM

Latest Report: Oct 20, 2014 at 1:30 PM


Visibility: N/A

Pressure: 29.89 "Hg

Humidity: 70%

Dew point: 75 °F

Location of Fort-de-FranceLocation

Historic Weather in Fort-de-France — Graph

°F

Fort-de-France temperature yesterday

Maximum temperature yesterday: 88 °F (at 10:30 AM)
Minimum temperature yesterday: 72 °F (at 5:30 AM)
Average temperature yesterday: 78 °F

Past Weeks' High & Low Weather Summary

 TemperatureHumidityPressure
High93 °F (Oct 14, 11:30 AM)100% (Oct 7, 5:30 AM)30.01 "Hg (Oct 7, 5:30 AM)
Low72 °F (Oct 19, 5:30 AM)49% (Oct 18, 12:00 PM)29.77 "Hg (Oct 9, 3:00 PM)
Average80 °F84%29.90 "Hg
* Reported Oct 5 1:00 PM — Oct 20 1:00 PM, Fort-de-France, Weather by CustomWeather, © 2014

Note: Actual official high and low records may vary slightly from our data, if they occured in-between our weather recording intervals... More about our weather records

Advertising

Fort-de-France weather history for previous 24 hours

 ConditionsComfort  
Time TempWeatherWind HumidityBarometerVisibility
1:00 PM
Oct 20
88 °FPartly sunny.13 mph66%29.89 "HgN/A
12:30 PM86 °FScattered clouds.8 mph66%29.92 "HgN/A
12:00 PM88 °FScattered clouds.10 mph66%29.92 "HgN/A
11:30 AM86 °FClear.10 mph66%29.95 "HgN/A
11:00 AM86 °FPassing clouds.9 mph66%29.95 "HgN/A
10:30 AM84 °FScattered clouds.12 mph70%29.95 "HgN/A
10:00 AM86 °FPassing clouds.12 mph66%29.95 "HgN/A
9:30 AM86 °FScattered clouds.8 mph70%29.95 "HgN/A
9:00 AM86 °FPassing clouds.9 mph66%29.95 "HgN/A
8:30 AM82 °FClear.8 mph79%29.95 "HgN/A
8:00 AM82 °FClear.6 mph79%29.95 "HgN/A
7:30 AM79 °FClear.3 mph94%29.95 "HgN/A
7:00 AM75 °FClear.2 mph94%29.95 "HgN/A
6:30 AM73 °FClear.2 mph94%29.92 "HgN/A
6:00 AM72 °FClear.2 mph100%29.92 "HgN/A
5:30 AM73 °FClear.2 mph100%29.92 "HgN/A
5:00 AM73 °FClear.2 mph100%29.89 "HgN/A
4:30 AM73 °FClear.2 mph100%29.89 "HgN/A
4:00 AM73 °FClear.5 mph100%29.89 "HgN/A
3:30 AM73 °FPassing clouds.3 mph100%29.89 "HgN/A
3:00 AM73 °FPassing clouds.2 mph100%29.89 "HgN/A
2:30 AM73 °FPassing clouds.2 mph100%29.89 "HgN/A
2:00 AM73 °FClear.3 mph100%29.89 "HgN/A
1:30 AM73 °FClear.2 mph100%29.89 "HgN/A
1:00 AM73 °FClear.3 mph100%29.92 "HgN/A
11:00 PM
Oct 19
75 °FPassing clouds.2 mph100%29.95 "HgN/A
10:30 PM75 °FClear.1 mph100%29.95 "HgN/A
10:00 PM75 °FClear.2 mph100%29.95 "HgN/A
9:30 PM75 °FClear.2 mph100%29.95 "HgN/A
9:00 PM75 °FClear.3 mph100%29.95 "HgN/A
8:30 PM77 °FClear.3 mph94%29.92 "HgN/A
8:00 PM77 °FClear.3 mph94%29.92 "HgN/A
7:30 PM77 °FPassing clouds.3 mph94%29.92 "HgN/A
7:00 PM77 °FPassing clouds.2 mph94%29.92 "HgN/A
6:30 PM77 °FMostly cloudy.3 mph94%29.89 "HgN/A
6:00 PM77 °FMostly cloudy.3 mph94%29.89 "HgN/A
5:30 PM79 °FOvercast.3 mph94%29.89 "HgN/A
5:00 PM79 °FLight rain. More clouds than sun.2 mph94%29.89 "HgN/A
4:30 PM79 °FLight rain. More clouds than sun.2 mph89%29.89 "Hg4 mi
4:00 PM81 °FHeavy rain. Mostly cloudy.3 mph84%29.89 "HgN/A
3:30 PM82 °FMostly cloudy.2 mph79%29.86 "HgN/A
3:00 PM81 °FOvercast.3 mph84%29.89 "HgN/A
2:30 PM81 °FMostly cloudy.3 mph89%29.89 "HgN/A
2:00 PM81 °FLight rain. More clouds than sun.1 mph89%29.89 "HgN/A
1:30 PM79 °FRain. Mostly cloudy.2 mph89%29.89 "HgN/A
1:00 PM81 °FLight rain. Fog.5 mph89%29.92 "Hg3 mi
Weather by CustomWeather, © 2014

See weather overviewHow to use our weather pages